METEOR 2-5 DEB, 45509

Orbit data source: Space-Track

METEOR 2-5 DEB, 45509 is space debris in LEO originally from a launch on Wed, 31 Oct 1979 UTC launched from the Plesetsk Missile And Space Complex (PKMTR). Debris objects in space refer to the collection of defunct objects orbiting the Earth. Examples of debris include non-operational satellites, rocket bodies, and fragments generated from explosions, collisions, or faulty payload assembly.

Loading next visibility...
Identifier
45509, 1979-095CR
Orbit
LEO
Country
Flag of CISCIS
Related business
Manufacturer
Unknown
Mission
Spacecraft
Bus & Motor
Unknown
Mass
Unknown
Launch date (UTC)
1979-10-31 (46 years ago)
Launch vehicle
Unknown
Launch site
Plesetsk Missile And Space Complex (PKMTR)
Object type
Payload
Rocket body
Debris
Shape & HBR
Unknown shape, 0.1 m
Radar Cross Section
Small (<0.1 m²)

Expand to show TLE details & history
Last TLE update: 2 days ago

TLE from 2 days ago
0 METEOR 2-5 DEB
1 45509U 79095CR  25291.98655962  .00012999  00000-0  40917-2 0  9995
2 45509  81.1935   6.6531 0006855 167.7376  10.0145 14.40316528610556
Epoch: 2025-10-18T23:40Z
TLE epoch observation values (Epoch: 2025-10-18T23:40:38.751Z)
Latitude
2.10359°
Longitude
163.45763°
Altitude
755.326 km
Speed
7.48 km/s
True Right ascension
12h 25m 18s
True Declination
2° 05' 28"
Sunlit
Object was in daylight at epoch
Visualization orbit readout
Latitude
Unknown
Longitude
Unknown
Altitude
Unknown
Speed
Unknown
Apparent Right ascension
Unknown
Apparent Declination
Unknown
Sunlit
N/A
Visualization observer readout
Local Sidereal Time
17:55:52
Azimuth
Unknown
Elevation
Unknown
Doppler factor
Unknown
Orbital elements
Apogee altitude
759.479 km
Perigee altitude
749.7 km
Semi-major axis
7,132.726 km
Eccentricity
0.00069
Inclination
81.1935°
RAAN
6.6531°
Arg. of periapsis
167.7376°
True anomaly
10.02817°
Mean anomaly
10.0145°
Eccentric anomaly
10.02133°
Mean motion
3.60296 °/min
Orbital period
99.92 mins
BSTAR
0.0040917
Loading maneuver chart data...
Computing Atmospheric mass density...
Loading historical data...
Loading historical data...
Loading historical data...
Loading historical data...
Loading historical data...
Loading historical data...
Loading historical data...

Documentation

Showing up to 5 results
|